Home > Weather > Feldbach > Past weeks

Flag for Austria Weather for the Past 2 Weeks in Feldbach, Styria, Austria

Now
37 °F

Sunny.


Feels Like: 37 °F
Forecast: 42 / 57 °F
Wind: 2 mph from Southeast

Location: Graz-Thalerhof-Flughafen

Current Time: Apr 30, 2016 at 8:08:09 AM

Latest Report: Apr 30, 2016 at 7:20 AM


Visibility: 10 mi

Pressure: 30.12 "Hg

Humidity: 93%

Dew Point: 36 °F

Location of FeldbachLocation

Historic Weather in Feldbach — Graph

°F

Feldbach Temperature Yesterday

Maximum temperature yesterday: 57 °F (at 3:20 PM)
Minimum temperature yesterday: 27 °F (at 5:20 AM)
Average temperature yesterday: 44 °F

High & Low Weather Summary for the Past Weeks

 TemperatureHumidityPressure
High75 °F (Apr 16, 2:50 PM)100% (Apr 19, 2:50 AM)30.36 "Hg (Apr 19, 2:50 AM)
Low27 °F (Apr 26, 4:50 AM)22% (Apr 16, 3:50 PM)29.56 "Hg (Apr 23, 4:50 PM)
Average50 °F64%29.92 "Hg
* Reported Apr 15 6:50 AM — Apr 30 6:20 AM, Feldbach, Weather by CustomWeather, © 2016

Note: Actual official high and low records may vary slightly from our data, if they occured in-between our weather recording intervals... More about our weather records

Advertising

Feldbach Weather History for the Previous 24 Hours

Scroll right to see more
 ConditionsComfort  
Time TempWeatherWind HumidityBarometerVisibility
6:20 AM
Sat, Apr 30
34 °FFog.1 mph93%30.09 "HgN/A
5:50 AM30 °FFog.1 mph100%30.09 "HgN/A
5:20 AM30 °FChilly.1 mph100%30.09 "HgN/A
4:20 AM32 °FChilly.1 mph100%30.09 "HgN/A
3:50 AM34 °FChilly.2 mph100%30.09 "HgN/A
2:50 AM34 °FChilly.1 mph100%30.12 "HgN/A
1:50 AM36 °FChilly.2 mph93%30.12 "HgN/A
1:20 AM36 °FChilly.1 mph93%30.12 "HgN/A
12:50 AM37 °FChilly.1 mph93%30.12 "HgN/A
12:20 AM39 °FChilly.1 mph93%30.12 "HgN/A
11:50 PM
Fri, Apr 29
39 °FChilly.1 mph93%30.12 "HgN/A
11:20 PM41 °FClear.1 mph81%30.12 "Hg10 mi
10:50 PM41 °FClear.1 mph81%30.12 "Hg10 mi
10:20 PM43 °FClear.1 mph76%30.12 "Hg10 mi
9:50 PM45 °FClear.1 mph71%30.12 "Hg10 mi
9:20 PM46 °FClear.1 mph66%30.09 "Hg10 mi
8:50 PM50 °FSunny.2 mph54%30.09 "Hg10 mi
8:20 PM52 °FSunny.3 mph47%30.09 "Hg10 mi
7:50 PM54 °FSunny.3 mph41%30.09 "Hg10 mi
7:20 PM55 °FPassing clouds.5 mph38%30.09 "HgN/A
6:50 PM57 °FPassing clouds.6 mph36%30.07 "HgN/A
6:20 PM57 °FPassing clouds.6 mph33%30.09 "HgN/A
5:50 PM57 °FPassing clouds.6 mph36%30.09 "HgN/A
5:20 PM57 °FPassing clouds.3 mph36%30.09 "HgN/A
4:50 PM57 °FPassing clouds.5 mph36%30.09 "HgN/A
4:20 PM57 °FPassing clouds.6 mph39%30.09 "HgN/A
3:50 PM57 °FPassing clouds.5 mph36%30.09 "HgN/A
3:20 PM57 °FPassing clouds.5 mph36%30.09 "HgN/A
2:50 PM55 °FPassing clouds.3 mph36%30.12 "HgN/A
2:20 PM55 °FPassing clouds.3 mph38%30.12 "HgN/A
1:50 PM54 °FPassing clouds.6 mph38%30.12 "HgN/A
1:20 PM54 °FPassing clouds.6 mph41%30.12 "HgN/A
12:50 PM54 °FPassing clouds.7 mph47%30.12 "HgN/A
12:20 PM52 °FPassing clouds.5 mph44%30.12 "HgN/A
11:50 AM52 °FPassing clouds.3 mph44%30.15 "HgN/A
11:20 AM52 °FPassing clouds.6 mph44%30.15 "HgN/A
10:50 AM50 °FPassing clouds.3 mph58%30.15 "HgN/A
10:20 AM48 °FPassing clouds.5 mph66%30.15 "HgN/A
9:50 AM46 °FPassing clouds.5 mph66%30.15 "HgN/A
9:20 AM45 °FPassing clouds.3 mph71%30.15 "HgN/A
8:50 AM43 °FSunny.2 mph71%30.15 "Hg10 mi
8:20 AM39 °FSunny.2 mph87%30.15 "Hg10 mi
Weather by CustomWeather, © 2016

See weather overviewHow to use our weather pages